GW2085 Weather Reports


Display with metric or nautical units.
time (UTC)temp
F
wind
direction
speed
MPH
gust
MPH
rain 1hr
in
rain 24hr
in
rain mn
in
humidity
%
barometer
mb
20260505021554 60 251 2.0 8.0 0.00 0.01 0.01 71 1014.6
20260505020058 60 138 3.0 9.0 0.00 0.01 0.01 69 1014.4
20260505014548 62 270 4.0 9.0 0.00 0.01 0.01 68 1014.5
20260505013055 63 257 2.0 9.0 0.00 0.01 0.01 65 1014.5
20260505011608 64 311 2.0 7.0 0.00 0.01 0.01 60 1014.5
20260505010057 64 109 2.0 8.0 0.00 0.01 0.01 62 1014.8
20260505004550 65 287 3.0 10.0 0.00 0.01 0.01 56 1014.6
20260505003053 66 276 1.0 11.0 0.00 0.01 0.01 56 1014.7
20260505001604 65 64 2.0 9.0 0.00 0.01 0.01 52 1014.9
20260505000107 66 245 4.0 11.0 0.00 0.01 0.01 51 1014.9
20260504234557 66 352 3.0 11.0 0.00 0.01 0.01 52 1015.0
20260504233110 66 268 6.0 12.0 0.00 0.01 0.01 50 1014.8
20260504231549 66 210 3.0 11.0 0.00 0.01 0.01 51 1014.8
20260504230054 67 184 5.0 10.0 0.00 0.01 0.01 51 1014.6
20260504224555 67 255 4.0 11.0 0.00 0.01 0.01 51 1014.7
20260504223054 66 311 5.0 11.0 0.00 0.01 0.01 54 1014.7
20260504221552 67 255 6.0 14.0 0.00 0.01 0.01 50 1015.0
20260504220057 68 241 4.0 9.0 0.00 0.01 0.01 46 1015.0
20260504214600 68 229 3.0 9.0 0.00 0.01 0.01 46 1015.1
20260504213053 68 342 3.0 8.0 0.00 0.01 0.01 44 1015.2
20260504211550 68 297 6.0 14.0 0.00 0.01 0.01 45 1015.3
20260504210050 69 7 4.0 9.0 0.00 0.01 0.01 45 1015.5
20260504204554 68 285 4.0 8.0 0.00 0.01 0.01 45 1015.4
20260504203122 68 233 4.0 9.0 0.00 0.01 0.01 48 1015.5
20260504201553 68 274 3.0 7.0 0.00 0.01 0.01 49 1015.5
20260504200101 67 220 3.0 8.0 0.00 0.01 0.01 51 1015.5
20260504194600 66 360 4.0 10.0 0.00 0.01 0.01 52 1015.6
20260504193050 66 227 3.0 8.0 0.00 0.01 0.01 52 1015.7
20260504191608 66 206 3.0 9.0 0.00 0.01 0.01 55 1015.9
20260504190052 65 252 2.0 5.0 0.00 0.01 0.01 56 1016.1
20260504184554 65 153 2.0 7.0 0.00 0.01 0.01 57 1016.3
20260504183058 64 264 1.0 6.0 0.00 0.01 0.01 61 1016.3
20260504181558 63 222 2.0 7.0 0.00 0.01 0.01 63 1016.4
20260504180055 63 283 2.0 7.0 0.00 0.01 0.01 61 1016.4
20260504174552 62 262 3.0 7.0 0.00 0.01 0.01 66 1016.2
20260504173049 62 247 3.0 6.0 0.00 0.01 0.01 66 1016.2
20260504171554 62 228 1.0 4.0 0.00 0.01 0.01 65 1016.0
20260504090107 57 312 1.0 4.0 0.00 0.03 0.01 83 1014.4
20260504081552 56 0 0.0 1.0 0.01 0.03 0.01 83 1015.3
20260504044604 59 255 0.0 2.0 0.00 0.02 0.02 71 1015.1
20260504043054 59 0 0.0 2.0 0.00 0.02 0.02 71 1014.8
20260504041549 59 237 0.0 2.0 0.00 0.02 0.02 71 1014.7
20260504040106 59 0 1.0 3.0 0.00 0.02 0.02 71 1014.4
20260504034551 59 240 1.0 4.0 0.00 0.02 0.02 70 1014.7
20260504033052 60 282 1.0 4.0 0.00 0.02 0.02 69 1014.5
20260504031548 60 266 1.0 7.0 0.00 0.02 0.02 69 1014.4
20260504030054 60 282 1.0 5.0 0.00 0.02 0.02 69 1014.2
20260504024555 60 287 1.0 4.0 0.00 0.02 0.02 68 1014.2
20260504023057 60 274 2.0 5.0 0.00 0.02 0.02 68 1014.2